Regional Weather Roundup
Issued by NWS Goodland, KS

Home | Current Version | Previous Version | Text Only | Print | Product List | Glossary Off
Versions: 1 2 3 4 5 6 7 8 9 10 11 12 13 14 15 16 17 18 19 20 21 22 23 24 25 26 27 28 29 30 31 32 33 34 35 36 37 38 39 40 41 42 43 44 45 46 47 48 49 50

000
ASUS43 KGLD 220659
RWRGLD

GOODLAND FORECAST AREA HOURLY WEATHER ROUNDUP
NATIONAL WEATHER SERVICE GOODLAND KS
100 AM MDT WED OCT 22 2014

...OFFICIAL OBSERVATIONS...

CITY           SKY/WX    TMP DP  RH WIND       PRES   REMARKS
GOODLAND KS    PTCLDY    53  47  79 S13       29.96S
HILL CITY KS   CLEAR     61  52  72 S6        29.98R
IMPERIAL NEB   PTCLDY    61  46  57 S10       29.91S
MCCOOK NEB     CLEAR     63  51  65 S15G23    29.93S
AKRON CO       MOCLDY    54  43  66 SW7       29.92R
BURLINGTON CO  PTCLDY    56  44  64 S15       29.94F
LIMON CO       CLOUDY    49  43  80 CALM      29.98F
$$

...UNOFFICIAL OBSERVATIONS...

CITY           SKY/WX    TMP DP  RH WIND       PRES   REMARKS
COLBY KS       CLEAR     61  54  77 S15G21    29.97R
GOVE KS          N/A     62  32  32 MISG        N/A
NORTON KS      CLEAR     59  48  67 S8        29.96R
SHARON SPRINGS   N/A     56  48  74 S12         N/A
TRENTON NEB      N/A     59  32  36 S10         N/A
KIT CARSON CO    N/A     56  46  70 N12         N/A
$$



USA.gov is the U.S. government's official web portal to all federal, state and local government web resources and services.